Northwest Labrador Sea: Past 24 Hour Conditions

 

Chesterfield Inlet Airport

12:00 PM CST 28 November 2014
This table is a summary of hourly weather conditions for the past 24 hours.
Date / Time
(CST)
Wind(knots) Conditions Visibility(km) Pressure(kPa) Air tempC) Relative humidity(%) Dew pointC) Wind Chill
28 November 2014
12:00 WNW 16 gust 21 Drifting Snow 16 100.7 -31 71 -34 -46
11:00 WNW 17 Drifting Snow 13 100.8 -31 72 -34 -47
10:00 WNW 20 Drifting Snow 16 100.7 -31 71 -35 -49
9:00 WNW 19 Drifting Snow 13 100.8 -32 72 -35 -49
8:00 WNW 19 Drifting Snow 16 100.8 -32 71 -35 -49
7:00 WNW 14 Clear 16 100.9 -32 71 -35 -47
6:00 W 16 gust 21 N/A N/A 100.9 -32 71 -36 -48
5:00 WNW 19 N/A N/A 100.9 -33 71 -36 -50
4:00 WNW 18 N/A N/A 100.9 -32 72 -36 -49
3:00 WNW 22 N/A N/A 100.9 -33 71 -36 -51
2:00 WNW 22 N/A N/A 100.9 -32 71 -36 -51
1:00 WNW 15 gust 21 N/A N/A 100.9 -32 71 -36 -48
0:00 WNW 19 gust 24 N/A N/A 100.8 -33 71 -36 -50
27 November 2014
23:00 WNW 16 N/A N/A 100.8 -32 73 -35 -48
22:00 WNW 19 N/A N/A 100.8 -32 71 -36 -50
21:00 WNW 17 N/A N/A 100.8 -32 72 -36 -49
20:00 WNW 14 N/A N/A 100.8 -32 71 -36 -48
19:00 W 14 N/A N/A 100.8 -32 71 -36 -48
18:00 WNW 15 N/A N/A 100.8 -32 71 -35 -48
17:00 WNW 13 Clear 24 100.8 -31 71 -34 -45
16:00 WNW 11 Mostly Cloudy 16 100.9 -30 72 -33 -43
15:00 WNW 11 Light Snow 13 100.8 -30 72 -34 -43
14:00 WNW 13 Light Snow 13 100.8 -30 73 -33 -44
13:00 W 12 Partly Cloudy 24 100.8 -31 72 -34 -45
12:00 WNW 10 Partly Cloudy 24 100.9 -30 71 -34 -43
 
Map of Arctic - Eastern Arctic marine weather areas Baker Lake Airport Chesterfield Inlet Airport Coral Harbour Airport Gjoa Haven Airport Kugaaruk Airport Rankin Inlet Airport Shepherd Bay Airport Whale Cove Airport Arctic Bay Brevoort Island Qikiqtarjuaq Airport Cape Dorset Airport Cape Dyer Cape Hooper Clyde Airport Grise Fiord Airport Hall Beach Airport Igloolik Airport Iqaluit Airport Longstaff Bluff Pangnirtung Airport Pond Inlet Airport Repulse Bay Airport Resolute Airport Resolution Island Rowley Island Airport Taloyoak Airport Wager Bay Akulivik Airport Ivujivik Airport Puvirnituq Airport Kangiqsujuaq Airport Kangirsuk Airport Quaqtaq Airport Tasiujaq Airport Cape Kakkiviak Cape Kiglapait Nain Airport Saglek Cape Mercy Kimmirut Airport Aupaluk Airport Salluit Airport Kangiqsualujjuaq Airport Fort Ross
Legend: buoyBuoy land stationLand Station